Location: Vancouver
(49.2500°N, 123.1330°W)
Time: 09:53:59
(UTC-07:00)

BREEZE-M DEB (TANK) - Visible Passes

Search period start: 26 March 2017 00:00
Search period end: 05 April 2017 00:00
Orbit: 273 x 13282 km, 49.6° (Epoch: 24 March)

Date Brightness Start Highest point End Pass type
(mag) Time Alt. Az. Time Alt. Az. Time Alt. Az.
26 Mar 9.3 02:20:03 10° NW 02:52:26 16° WNW 03:33:37 10° W visible
26 Mar 8.3 18:15:07 10° W 18:43:17 90° N 20:41:39 10° ESE visible
26 Mar 8.9 22:42:07 10° WNW 23:38:49 52° WSW 00:55:26 22° SSW visible
27 Mar 8.6 19:20:21 10° WNW 19:57:53 85° SSW 21:48:24 15° SE visible
27 Mar 9.0 23:50:18 10° NW 00:44:09 38° W 01:58:57 14° SW visible
28 Mar 8.8 20:25:58 10° WNW 21:12:42 74° SW 22:51:54 19° SSE visible
29 Mar 9.1 01:01:27 10° NW 01:45:55 24° W 02:49:16 10° WSW visible
29 Mar 8.8 21:32:05 10° WNW 22:24:49 61° WSW 23:55:28 18° S visible
30 Mar 9.4 02:25:48 10° WNW 02:44:33 12° WNW 03:06:24 10° W visible
30 Mar 8.4 18:11:51 10° W 18:40:59 89° SSW 20:38:46 10° SE visible
30 Mar 8.9 22:39:01 10° WNW 23:33:00 47° WSW 00:59:03 14° SSW visible
31 Mar 8.7 19:16:59 10° WNW 19:55:10 82° SSW 21:50:02 10° SSE visible
31 Mar 9.0 23:47:33 10° NW 00:37:22 33° W 01:54:57 10° SW visible
01 Apr 8.9 20:22:30 10° WNW 21:08:50 70° SW 22:55:39 11° SSE visible
02 Apr 9.3 01:00:20 10° NW 01:38:22 20° W 02:31:59 10° WSW visible
02 Apr 8.9 21:28:34 10° WNW 22:19:38 57° WSW 23:58:20 10° S visible
03 Apr 8.5 18:08:10 10° W 18:38:09 87° SSW 20:35:01 10° SE visible
03 Apr 9.0 22:35:35 10° NW 23:26:41 42° WSW 00:54:39 10° SSW visible
04 Apr 8.8 19:13:12 10° WNW 19:51:43 78° SW 21:44:57 10° SSE visible
